Home   Weather   Kiruna   Past weeks

Flag for Sweden Past Weather in Kiruna, Sweden — Yesterday and Last 2 Weeks

Now
25 °F

Passing clouds.


Feels Like: 10 °F
Forecast: 11 / 19 °F
Wind: 21 mph from West

Location: Kiruna Airport

Current Time: Jan 20, 2017 at 9:17:34 am

Latest Report: Jan 20, 2017 at 8:20 am


Visibility: N/A

Pressure: 29.47 "Hg (27.55 "Hg at 532m altitude)

Humidity: 74%

Dew Point: 18 °F

Location of KirunaLocation

Past Weather in Kiruna — Graph

°F

Kiruna Temperature Yesterday

Maximum temperature yesterday: 32 °F (at 12:20 am)
Minimum temperature yesterday: 16 °F (at 11:50 pm)
Average temperature yesterday: 24 °F

High & Low Weather Summary for the Past Weeks

 TemperatureHumidityPressure
High37 °F (Jan 18, 8:20 pm)100% (Jan 10, 7:50 pm)30.24 "Hg (Jan 10, 7:50 pm)
Low-18 °F (Jan 5, 7:20 am)51% (Jan 5, 9:20 pm)28.80 "Hg (Jan 11, 7:50 am)
Average18 °F85%29.41 "Hg
* Reported Jan 5 7:20 am — Jan 20 7:50 am, Kiruna, Weather by CustomWeather, © 2017

Note: Actual official high and low records may vary slightly from our data, if they occured in-between our weather recording intervals... More about our weather records

Advertising

Kiruna Weather History for the Previous 24 Hours

Scroll right to see more
 ConditionsComfort  
Time TempWeatherWind HumidityBarometerVisibility
7:50 am
Fri, Jan 20
25 °FClear.20 mph69%29.45 "Hg10 mi
7:20 am25 °FClear.16 mph69%29.45 "Hg10 mi
6:50 am25 °FPassing clouds.20 mph69%29.45 "HgN/A
6:20 am23 °FClear.18 mph74%29.45 "Hg10 mi
5:50 am21 °FClear.14 mph74%29.45 "Hg10 mi
5:20 am19 °FCold.6 mph79%29.45 "HgN/A
4:50 am18 °FCold.9 mph79%29.45 "HgN/A
4:20 am16 °FCold.8 mph86%29.47 "HgN/A
3:50 am19 °FCold.10 mph79%29.47 "HgN/A
3:20 am18 °FPassing clouds.9 mph79%29.47 "HgN/A
2:50 am19 °FPassing clouds.10 mph73%29.50 "HgN/A
2:20 am18 °FCold.10 mph79%29.50 "HgN/A
1:50 am18 °FCold.12 mph79%29.50 "HgN/A
1:20 am16 °FPassing clouds.12 mph79%29.50 "HgN/A
12:50 am16 °FCold.15 mph79%29.53 "HgN/A
12:20 am16 °FCold.14 mph79%29.53 "HgN/A
11:50 pm
Thu, Jan 19
16 °FCold.7 mph79%29.56 "HgN/A
11:20 pm18 °FCold.13 mph68%29.56 "HgN/A
10:50 pm18 °FClear.12 mph68%29.56 "Hg10 mi
10:20 pm19 °FClear.14 mph63%29.56 "Hg10 mi
9:50 pm19 °FClear.17 mph58%29.56 "Hg10 mi
9:20 pm19 °FClear.21 mph63%29.56 "Hg10 mi
8:50 pm19 °FClear.20 mph63%29.53 "Hg10 mi
8:20 pm19 °FClear.22 mph68%29.53 "Hg10 mi
7:50 pm19 °FClear.22 mph68%29.53 "Hg10 mi
7:20 pm19 °FClear.21 mph68%29.50 "Hg10 mi
6:50 pm19 °FClear.25 mph68%29.47 "Hg10 mi
6:20 pm19 °FClear.22 mph68%29.45 "Hg10 mi
5:50 pm18 °FPassing clouds.23 mph73%29.45 "HgN/A
5:20 pm18 °FPassing clouds.22 mph86%29.42 "HgN/A
4:50 pm18 °FPassing clouds.24 mph86%29.42 "HgN/A
4:20 pm18 °FPassing clouds.23 mph93%29.39 "HgN/A
3:50 pm19 °FSnow flurries. Partly cloudy.25 mph93%29.33 "Hg3 mi
3:20 pm21 °FHeavy snow. Ice fog.28 mph93%29.30 "Hg1 mi
2:50 pm23 °FSnow. Ice fog.21 mph93%29.27 "Hg1 mi
2:20 pm25 °FPassing clouds.15 mph86%29.21 "HgN/A
1:50 pm23 °FLight snow. Ice fog.16 mph100%29.21 "HgN/A
1:20 pm25 °FSnow showers. Ice fog.13 mph93%29.18 "Hg2 mi
12:50 pm25 °FLight snow. Scattered clouds.15 mph93%29.15 "Hg4 mi
12:20 pm25 °FLight snow. Ice fog.16 mph93%29.15 "Hg1 mi
11:50 am27 °FSunny.16 mph74%29.12 "Hg10 mi
11:20 am28 °FSunny.16 mph64%29.12 "Hg10 mi
10:50 am27 °FSunny.16 mph86%29.12 "Hg10 mi
10:20 am27 °FPassing clouds.18 mph93%29.12 "HgN/A
9:50 am28 °FPassing clouds.18 mph93%29.15 "HgN/A
9:20 am28 °FLight snow. Ice fog.23 mph100%29.12 "Hg1 mi
Weather by CustomWeather, © 2017

See weather overviewHow to use our weather pages